Location: McFarlands Corners
(41.4117°N, 81.3382°W)
Time: 10:26:07
(UTC+00:00)

Courier 1B Rocket - Pass Details

Date: 25 February 2026
Orbit: 920 x 1201 km, 28.2° (Epoch: 10 March)

Event Time Altitude Azimuth Distance (km) Brightness Sun altitude
Rises 23:30:09 0° 247° (WSW) 3,601 9.9 -4.3°
Reaches altitude 10° 23:33:18 10° 234° (SW) 2,629 8.4 -4.9°
Maximum altitude 23:38:10 24° 182° (S) 1,804 6.6 -5.8°
Drops below altitude 10° 23:43:01 10° 131° (SE) 2,604 6.8 -6.7°
Enters shadow 23:45:33 - 119° (ESE) 3,374 7.3 -7.2°
Sets 23:46:06 0° 118° (ESE) 3,558 - -7.3°
